sat.trackr.live / text

‹ back to catalog

STARLINK-34833

NORAD 65218 · 2025-176W

PAYLOAD ACTIVE UNKNOWN

§ Identity

Operator
Country
US
Launch date
2025-08-14
Launch site
AFETR
Launch vehicle
Mass (kg)
RCS (m²)

Purposes: comms

External: N2YO · Heavens-Above · Gunter

§ Orbital elements

Epoch: 2026-09-20T21:26:43.844928Z

Period
93.85 min
Inclination
53.1605°
Eccentricity
0.0001597
Mean motion
15.34373378 rev/d
Perigee alt
461.7 km
Apogee alt
463.9 km
Semi-major
6,840.9 km
B*
4.5734e-4
RAAN
322.0137°
Arg perigee
77.6927°
Mean anomaly
282.4255°
Rev number
6,306

§ Raw data

STARLINK-348331 65218U 25176W   26263.89356302  .00015094  00000+0  45734-3 0  99922 65218  53.1605 322.0137 0001597  77.6927 282.4255 15.34373378 63069

JSON: /api/v1/satellites/65218 · /tle

For live sub-satellite position, see the globe view (requires WebGL).

§ Visibility from observer

Set your observer location to see the next 7 days of passes ≥ 10°. The values pass through the URL so the page stays shareable.

No JS? Fill the form by hand. The geolocation button needs JavaScript.